User: anonymous   Login
Location: Almena Post Office
(39.8928°N, 99.7066°W)
Time: 06:10:36
(UTC+00:00)
Language:

Cosmos 2233 Rocket - Orbit

View from above orbital plane
View from above orbital plane
View from above satellite
View from above satellite

Ground track
Ground track

The orbit data is extracted from the following two-line orbital elements,

1 22488U 93008B   20151.97018492 -.00000064 +00000-0 -79475-4 0  9991
2 22488 082.9418 355.6141 0026745 082.3986 024.2943 13.77711132372518
Epoch (UTC): 30 May 2020 23:17:03
Eccentricity: 0.0026745
inclination: 82.9418°
perigee height: 952 km
apogee height: 991 km
right ascension of ascending node: 355.6141°
argument of perigee: 82.3986°
revolutions per day: 13.77711132
mean anomaly at epoch: 24.2943°
orbit number at epoch: 37251

The dashed part of the orbit path shows where the satellite is in the earth's shadow,  

DLR